Regional Weather Roundup
Issued by NWS Columbia, SC

Home | Current Version | Previous Version | Text Only | Print | Product List | Glossary On
Versions: 1 2 3 4 5 6 7 8 9 10 11 12 13 14 15 16 17 18 19 20 21 22 23 24 25 26 27 28 29 30 31 32 33 34 35 36 37 38 39 40 41 42 43 44 45 46 47 48 49 50
000
ASUS42 KCAE 011910
RWRCAE
REGIONAL WEATHER ROUNDUP
NATIONAL WEATHER SERVICE COLUMBIA SC
200 PM EST SUN MAR 01 2015

NOTE: "FAIR" INDICATES FEW OR NO CLOUDS BELOW 12,000 FEET WITH NO
SIGNIFICANT WEATHER AND/OR OBSTRUCTIONS TO VISIBILITY.

NOT ALL STATIONS ARE QUALITY CONTROLLED BY THE NATIONAL
WEATHER SERVICE. USE DATA WITH CAUTION...ESPECIALLY
DEWPOINT OBSERVATIONS.

SCZ001>056-GAZ040-063>065-077-012000-
...UPSTATE SOUTH CAROLINA...

CITY           SKY/WX    TMP DP  RH WIND       PRES   REMARKS
ANDERSON       CLOUDY    42  39  89 CALM      30.43F
LIBERTY        RAIN      43  42  95 MISG      30.42F
SPARTANBURG    LGT RAIN  41  41 100 CALM      30.42F
CLEMSON        CLOUDY    44  39  82 CALM      30.44F HAZE
GREENVILLE     LGT RAIN  42  38  85 CALM      30.43F
GREENWOOD      LGT RAIN  39  37  92 CALM      30.45F FOG
GREER          LGT RAIN  41  39  93 CALM      30.41F FOG
ROCK HILL      LGT RAIN  37  36  96 NE5       30.44F FOG     WCI  33
CHESTER        CLOUDY    41  37  87 CALM      30.44F FOG
LAURENS        RAIN      37  37 100 CALM      30.44F


...CENTRAL SOUTH CAROLINA...

CITY           SKY/WX    TMP DP  RH WIND       PRES   REMARKS
COLUMBIA APT   CLOUDY    40  37  89 NE5       30.43F
COLUMBIA OWENS CLOUDY    40  36  86 E3        30.45F
DARLINGTON     CLOUDY    37  34  87 N6        30.45F WCI  33
FLORENCE       CLOUDY    38  35  89 NE6       30.44F WCI  33
MCENTIRE ANGB  CLOUDY    40  38  93 E5        30.43F
ORANGEBURG     CLOUDY    41  37  86 N5        30.43F
SUMTER SHAW    CLOUDY    39  36  87 NE6       30.42F WCI  35
NEWBERRY       RAIN     N/A N/A N/A CALM      30.46F
AIKEN          CLOUDY    39  39 100 N3        30.46F FOG
BARNWELL       CLOUDY    43  39  87 N3        30.44F
MANNING        DRIZZLE  N/A N/A N/A CALM      30.43F
CAMDEN         CLOUDY    37  36  93 CALM      30.44F
LANCASTER      LGT RAIN  37  37 100 NE3       30.44F
WINNSBORO      CLOUDY    36  36 100 NE5       30.43F FOG     WCI  32


...EASTERN AND COASTAL SOUTH CAROLINA...

CITY           SKY/WX    TMP DP  RH WIND       PRES   REMARKS
MYRTLE BEACH   LGT RAIN  45  39  81 N10       30.45F FOG
N MYRTLE BCH   LGT RAIN  45  42  89 N9        30.42F FOG
CONWAY         CLOUDY    41  41 100 N5        30.44F FOG
MARION         DRIZZLE   37  37 100 CALM      30.45F
HARTSVILLE     CLOUDY    37  36  93 E5        30.44F WCI  34
FLORENCE       CLOUDY    38  35  89 NE6       30.44F WCI  33
DARLINGTON     CLOUDY    37  34  87 N6        30.45F WCI  33
CHARLESTON APT DRIZZLE   43  42  97 N8        30.42F FOG
MOUNT PLEASANT DRIZZLE   45  45 100 NW7       30.41F
WALTERBORO     RAIN      43  43 100 N3        30.43F
BEAUFORT       CLOUDY    45  43  93 N8        30.41F


...EASTERN GEORGIA...

CITY           SKY/WX    TMP DP  RH WIND       PRES   REMARKS
AUGUSTA BUSH F CLOUDY    41  38  89 N3        30.44F FOG
AUGUSTA DANIEL CLOUDY    43  38  82 VRB3      30.43F
THOMSON        CLOUDY    41  41 100 NW5       30.48F
WASHINGTON     CLOUDY    41 N/A N/A CALM      30.43F FOG
CLAXTON        CLOUDY    45  45 100 E5        30.41F
SYLVANIA       CLOUDY    43  43 100 NE6       30.43F
STATESBORO     CLOUDY    43  43 100 N5        30.41F
SAVANNAH       CLOUDY    46  44  93 N6        30.42F FOG


...SOUTHERN NORTH CAROLINA...

CITY           SKY/WX    TMP DP  RH WIND       PRES   REMARKS
CHARLOTTE      DRIZZLE   37  34  89 N5        30.44F FOG     WCI  33
MONROE         CLOUDY    37  34  89 N3        30.43F
WADESBORO      RAIN      37  35  93 N5        30.45F WCI  33
ROCKINGHAM       N/A     36  35  96 N3        30.44F
RUTHERFORDTON  CLOUDY    40  39  96 CALM      30.42F FOG
ASHEVILLE      CLOUDY    49  43  80 S6        30.36F

$$


USA.gov is the U.S. government's official web portal to all federal, state and local government web resources and services.